Location: Newark
(48.6767°N, 1.3256°E)
Time: 15:38:23
(UTC+00:00)

ISS - Pass Details

Date: 22 November 2019
Orbit: 411 x 421 km, 51.6° (Epoch: 16 December)

Event Time Altitude Azimuth Distance (km) Brightness Sun altitude
Rises 18:58:09 0° 233° (SW) 2,352 0.8 -27.7°
Reaches altitude 10° 19:00:16 10° 228° (SW) 1,494 -0.4 -28.0°
Enters shadow 19:00:44 13° 227° (SW) 1,312 -0.8 -28.1°
